Location: Madrid
(40.4167°N, 3.7036°W)
Time: 10:38:52
(UTC+00:00)

ISS - Pass Details

Date: 07 May 2025
Orbit: 416 x 420 km, 51.6° (Epoch: 14 May)

Event Time Altitude Azimuth Distance (km) Brightness Sun altitude
Exits shadow 01:48:52 10° 338° (NNW) 1,498 -0.5 -28.4°
Reaches altitude 10° 01:48:53 10° 338° (NNW) 1,495 -0.5 -28.4°
Maximum altitude 01:50:30 13° 7° (N) 1,330 -0.4 -28.3°
Drops below altitude 10° 01:52:08 10° 36° (NE) 1,495 0.0 -28.1°
Sets 01:55:10 0° 66° (ENE) 2,358 0.8 -27.9°
